📊 Raw Sensor Data

Showing records 48626 to 48650 of 85,105 total

ID Distance (ft) Battery V Battery A Int Temp (°F) Int Humid (%) Ext Temp (°F) Solar V RSSI SNR Time Stamp
36492 -- 4.01 0 70 38 65 5.10 -83 8 03/31/2025 01:30 PM
36491 -- 4.01 0 67 39 65 5.10 -86 8 03/31/2025 01:15 PM
36490 -- 4.01 0 64 40 60 5.10 -84 8 03/31/2025 01:00 PM
36489 -- 4.04 0 65 40 59 5.10 -79 7 03/31/2025 12:45 PM
36488 -- 4.01 0 66 39 61 5.10 -80 8 03/31/2025 12:30 PM
36487 -- 4.01 0 65 39 61 5.10 -84 8 03/31/2025 12:15 PM
36486 -- 4.01 0 65 39 64 5.10 -82 8 03/31/2025 12:00 PM
36485 15.1 4.01 0 62 39 63 5.10 -82 8 03/31/2025 11:45 AM
36484 15.1 4.01 0 58 40 60 5.10 -84 9 03/31/2025 11:30 AM
36483 15.0 4.11 0 55 41 56 5.10 -84 8 03/31/2025 11:15 AM
36482 15.0 4.01 0 54 41 55 5.10 -82 7 03/31/2025 11:00 AM
36481 15.0 4.01 0 54 41 55 5.10 -84 8 03/31/2025 10:45 AM
36480 15.1 4.01 0 54 41 54 5.10 -84 7 03/31/2025 10:30 AM
36479 15.0 4.01 0 53 42 54 5.10 -82 8 03/31/2025 10:15 AM
36478 15.1 4.06 32 54 42 52 4.50 -92 7 03/31/2025 10:00 AM
36477 -- 4.01 0 57 39 56 5.10 -83 9 03/31/2025 09:45 AM
36476 15.1 4.01 0 58 38 59 5.10 -79 8 03/31/2025 09:30 AM
36475 15.2 4.01 0 54 39 54 5.10 -78 7 03/31/2025 09:00 AM
36474 15.1 4.01 0 53 39 54 5.10 -78 7 03/31/2025 08:45 AM
36473 15.1 4.01 0 53 39 55 5.10 -80 7 03/31/2025 08:30 AM
36472 15.1 4.00 0 51 39 57 5.10 -81 8 03/31/2025 08:15 AM
36471 15.1 4.04 13 50 40 52 4.50 -82 6 03/31/2025 08:00 AM
36470 15.0 4.07 -9 50 40 51 4.50 -80 7 03/31/2025 07:45 AM
36469 15.1 4.02 0 49 40 50 4.50 -81 7 03/31/2025 07:30 AM
36468 -- 3.93 -5 49 40 50 4.50 -90 7 03/31/2025 07:15 AM